Clinton, MO

11:08 AM CDT on April 25, 2017 (GMT -0500)
Clinton Memorial

Weather History for KGLY - December, 2013

Change the Weather History Date:

Monday, December 23, 2013

  Actual Average (KSZL) Record (KSZL)
Temperature  
Mean Temperature 14 °F -  
Max Temperature 19 °F 37 °F 65 °F (2015)
Min Temperature 10 °F 20 °F 3 °F (2004)
Degree Days  
Heating Degree Days 50    
Moisture  
Dew Point 12 °F    
Average Humidity 83    
Maximum Humidity 93    
Minimum Humidity 73    
Precipitation  
Precipitation 0.03 in - - ()
Sea Level Pressure  
Sea Level Pressure 30.54 in    
Wind  
Wind Speed - (North)    
Max Wind Speed -    
Max Gust Speed -    
Visibility 9 miles    
Events Snow    
Averages and records for this station are not official NWS values.
T = Trace of Precipitation, MM = Missing Value Source: NWS Daily Summary

Daily Weather History Graph

Daily Weather History Graph

Search for Another Location

Airport or City:

Trip Planner

Search our weather history database for the weather conditions in past years. The results will help you decide how hot, cold, wet, or windy it might be!

Date:

Astronomy

Dec. 23, 2013 Rise Set
Actual Time 7:29 AM CST 4:58 PM CST
Civil Twilight 6:59 AM CST 5:28 PM CST
Nautical Twilight 6:26 AM CST 6:01 PM CST
Astronomical Twilight 5:54 AM CST 6:34 PM CST
Moon 11:04 PM CST (12/23) 10:59 AM CST (12/23)
Length of Visible Light 10h 29m
Length of Day
9h 29m
Waning Gibbous, 68% of the Moon is Illuminated
Dec 23
Waning Gibbous
Dec 25
Last Quarter
Jan 1
New
Jan 7
First Quarter
Jan 15
Full

Hourly Weather History & Observations

Time (CST) Temp. Dew Point Humidity Pressure Visibility Wind Dir Wind Speed Gust Speed Precip Events Conditions
12:15 AM 19.4 °F 15.8 °F 86% 30.38 in 8.0 mi North - - N/A   Clear
12:35 AM 19.4 °F 15.8 °F 86% 30.38 in 8.0 mi North - - N/A   Clear
12:55 AM 19.4 °F 15.8 °F 86% 30.38 in 7.0 mi North - - N/A   Clear
1:15 AM 17.6 °F 15.8 °F 93% 30.39 in 8.0 mi North - - N/A   Clear
1:35 AM 17.6 °F 15.8 °F 93% 30.39 in 8.0 mi North - - N/A   Clear
1:55 AM 17.6 °F 14.0 °F 86% 30.39 in 7.0 mi North - - N/A   Clear
2:15 AM 17.6 °F 15.8 °F 93% 30.39 in 7.0 mi North - - N/A   Clear
2:35 AM 17.6 °F 15.8 °F 93% 30.40 in 7.0 mi North - - N/A   Clear
2:55 AM 17.6 °F 15.8 °F 93% 30.40 in 6.0 mi North - - N/A   Clear
3:15 AM 17.6 °F 14.0 °F 86% 30.42 in 7.0 mi North - - N/A   Clear
3:35 AM 17.6 °F 14.0 °F 86% 30.43 in 7.0 mi North - - N/A   Clear
3:55 AM 17.6 °F 14.0 °F 86% 30.44 in 8.0 mi North - - N/A   Clear
4:15 AM 17.6 °F 14.0 °F 86% 30.44 in 8.0 mi North - - N/A   Clear
4:35 AM 17.6 °F 12.2 °F 79% 30.44 in 9.0 mi North - - N/A   Clear
4:55 AM 15.8 °F 12.2 °F 86% 30.45 in 10.0 mi North - - N/A   Clear
5:15 AM 15.8 °F 12.2 °F 86% 30.45 in 10.0 mi North - - N/A   Clear
5:35 AM 15.8 °F 12.2 °F 86% 30.46 in 10.0 mi North - - N/A   Clear
5:55 AM 14.0 °F 10.4 °F 86% 30.47 in 10.0 mi North - - N/A   Clear
6:15 AM 14.0 °F 10.4 °F 86% 30.48 in 10.0 mi North - - N/A   Clear
6:35 AM 14.0 °F 10.4 °F 86% 30.48 in 10.0 mi North - - N/A   Clear
6:55 AM 14.0 °F 10.4 °F 86% 30.50 in 10.0 mi North - - N/A   Clear
7:15 AM 14.0 °F 8.6 °F 79% 30.50 in 10.0 mi North - - N/A   Clear
7:35 AM 14.0 °F 8.6 °F 79% 30.52 in 10.0 mi North - - N/A   Scattered Clouds
7:55 AM 14.0 °F 8.6 °F 79% 30.54 in 10.0 mi North - - N/A   Partly Cloudy
8:15 AM 14.0 °F 10.4 °F 86% 30.54 in 10.0 mi North - - N/A   Clear
8:35 AM 14.0 °F 10.4 °F 86% 30.54 in 10.0 mi North - - N/A   Scattered Clouds
8:55 AM 14.0 °F 10.4 °F 86% 30.55 in 10.0 mi North - - N/A   Mostly Cloudy
9:15 AM 14.0 °F 10.4 °F 86% 30.57 in 10.0 mi North - - N/A   Mostly Cloudy
9:35 AM 14.0 °F 10.4 °F 86% 30.58 in 10.0 mi North - - N/A   Scattered Clouds
9:55 AM 15.8 °F 10.4 °F 79% 30.60 in 10.0 mi North - - N/A   Mostly Cloudy
10:15 AM 15.8 °F 10.4 °F 79% 30.61 in 10.0 mi North - - N/A   Mostly Cloudy
10:35 AM 17.6 °F 10.4 °F 73% 30.61 in 10.0 mi North - - N/A   Mostly Cloudy
10:55 AM 17.6 °F 10.4 °F 73% 30.61 in 10.0 mi North - - N/A   Overcast
11:15 AM 17.6 °F 12.2 °F 79% 30.60 in 10.0 mi North - - N/A   Mostly Cloudy
11:35 AM 17.6 °F 12.2 °F 79% 30.60 in 10.0 mi North - - N/A   Mostly Cloudy
11:55 AM 17.6 °F 14.0 °F 86% 30.60 in 10.0 mi North - - N/A   Mostly Cloudy
12:15 PM 17.6 °F 12.2 °F 79% 30.58 in 10.0 mi North - - N/A   Mostly Cloudy
12:35 PM 19.4 °F 14.0 °F 80% 30.57 in 10.0 mi North - - N/A   Overcast
12:55 PM 19.4 °F 14.0 °F 80% 30.58 in 10.0 mi North - - N/A   Mostly Cloudy
1:15 PM 19.4 °F 14.0 °F 80% 30.58 in 10.0 mi North - - N/A   Overcast
1:35 PM 19.4 °F 14.0 °F 80% 30.57 in 9.0 mi North - - N/A Snow Light Snow
1:55 PM 19.4 °F 14.0 °F 80% 30.57 in 5.0 mi North - - N/A Snow Light Snow
2:15 PM 19.4 °F 14.0 °F 80% 30.57 in 2.5 mi North - - 0.01 in Snow Light Snow
2:35 PM 19.4 °F 14.0 °F 80% 30.57 in 3.0 mi North - - 0.02 in Snow Light Snow
2:55 PM 17.6 °F 14.0 °F 86% 30.57 in 4.0 mi North - - 0.03 in Snow Light Snow
3:15 PM 17.6 °F 14.0 °F 86% 30.57 in 10.0 mi North - - N/A   Overcast
3:35 PM 19.4 °F 14.0 °F 80% 30.57 in 10.0 mi North - - N/A   Mostly Cloudy
3:55 PM 19.4 °F 14.0 °F 80% 30.58 in 7.0 mi North - - N/A Snow Light Snow
4:15 PM 17.6 °F 14.0 °F 86% 30.58 in 8.0 mi North - - N/A Snow Light Snow
4:35 PM 17.6 °F 12.2 °F 79% 30.58 in 10.0 mi North - - N/A   Overcast
4:55 PM 17.6 °F 12.2 °F 79% 30.59 in 10.0 mi North - - N/A   Scattered Clouds
5:15 PM 17.6 °F 12.2 °F 79% 30.59 in 10.0 mi North - - N/A   Mostly Cloudy
5:35 PM 15.8 °F 12.2 °F 86% 30.59 in 10.0 mi North - - N/A Snow Light Snow
5:55 PM 17.6 °F 12.2 °F 79% 30.59 in 10.0 mi North - - N/A Snow Light Snow
6:15 PM 17.6 °F 12.2 °F 79% 30.60 in 9.0 mi North - - N/A   Overcast
6:35 PM 17.6 °F 12.2 °F 79% 30.60 in 10.0 mi North - - N/A Snow Light Snow
6:55 PM 17.6 °F 12.2 °F 79% 30.61 in 10.0 mi North - - N/A   Overcast
7:15 PM 15.8 °F 10.4 °F 79% 30.61 in 10.0 mi North - - N/A Snow Light Snow
7:35 PM 15.8 °F 10.4 °F 79% 30.61 in 7.0 mi North - - N/A Snow Light Snow
7:55 PM 15.8 °F 10.4 °F 79% 30.61 in 10.0 mi North - - N/A   Overcast
8:15 PM 14.0 °F 10.4 °F 86% 30.62 in 10.0 mi North - - N/A   Scattered Clouds
8:35 PM 14.0 °F 10.4 °F 86% 30.62 in 10.0 mi North - - N/A   Clear
8:55 PM 14.0 °F 10.4 °F 86% 30.62 in 10.0 mi North - - N/A   Clear
9:15 PM 12.2 °F 8.6 °F 85% 30.62 in 10.0 mi North - - N/A   Clear
9:35 PM 12.2 °F 8.6 °F 85% 30.62 in 10.0 mi North - - N/A   Clear
9:55 PM 12.2 °F 8.6 °F 85% 30.62 in 10.0 mi North - - N/A   Clear
10:15 PM 12.2 °F 8.6 °F 85% 30.62 in 10.0 mi North - - N/A   Scattered Clouds
10:35 PM 12.2 °F 8.6 °F 85% 30.63 in 10.0 mi North - - N/A   Overcast
10:55 PM 12.2 °F 8.6 °F 85% 30.63 in 10.0 mi North - - N/A   Overcast
11:15 PM 10.4 °F 6.8 °F 85% 30.62 in 10.0 mi North - - N/A   Mostly Cloudy
11:35 PM 10.4 °F 6.8 °F 85% 30.62 in 10.0 mi North - - N/A   Clear
11:55 PM 10.4 °F 5.0 °F 79% 30.61 in 10.0 mi North - - N/A   Clear